THAICOM 8

Last updated on Sun Jun 21 2026 00:03:06 GMT+0000 (Coordinated Universal Time)

1 41552U 16031A 26171.40753872 -.00000125 00000+0 00000+0 0 9998 2 41552 0.0601 38.3392 0003702 21.4191 74.0520 1.00271962 36751
UTC large
Height (km)
Speed (km/s)
/
Latitude / Longitude
Inclination (degrees)
Orbital Period (minutes)
Azimuth
Elevation
Range (km)
Doppler Factor

Next 0 passes for location: London (51.5072 / 0.1276)

No passes found over London.
THAICOM 8